Location: A�t Ali ou Kessou
(32.8393°N, 5.6062°W)
Time: 20:28:11
(UTC+00:00)

Daily predictions for brighter satellites

Satellite Brightness Start Highest point End
(mag) Time Altitude Azimuth Time Altitude Azimuth Time Altitude Azimuth
CSL-04 Debris 4.2 19:29:21 10° SSE 19:34:43 67° ENE 19:40:06 10° N
Cosmos 1943 3.6 19:29:47 10° N 19:35:11 45° ENE 19:40:35 10° SE
X-37B 3.7 19:40:44 10° NNW 19:41:46 11° N 19:42:47 10° N
USA 229 DEB 4.0 19:38:18 10° NNW 19:45:51 85° ENE 19:53:42 10° SSE
USA 229 4.0 19:38:23 10° NNW 19:45:56 84° ENE 19:53:47 10° SSE
Okean 3 Rocket 3.6 19:43:05 10° N 19:47:32 87° W 19:51:55 10° S
Cosmos 540 Rocket 3.4 19:43:31 10° NNW 19:48:37 74° ENE 19:53:42 10° SSE
CSL-04 Rocket 3.6 19:45:57 10° SSE 19:51:13 87° ENE 19:56:33 10° NNW
CZ-4 R/B 3.5 19:48:34 10° SSW 19:52:09 29° W 19:55:43 10° NW
Cosmos 1844 4.3 19:47:15 10° S 19:52:27 36° ESE 19:57:37 10° NE
Cosmos 968 Rocket 3.7 19:48:22 10° S 19:53:23 48° ESE 19:58:24 10° NNE
Okean-O 3.9 19:52:33 10° S 19:56:44 42° W 20:00:56 10° NNW
ERS-2 2.4 19:54:54 10° N 19:58:30 69° WNW 20:02:06 10° SSW
Cosmos 1743 Rocket 4.5 19:56:24 10° NNE 20:00:11 29° E 20:03:08 15° SE
Cosmos 1486 Rocket 4.3 19:55:54 10° S 20:00:55 45° ESE 20:05:58 10° NNE
MetOp-A 4.1 19:58:45 10° SSE 20:04:05 76° ENE 20:09:26 10° N
NOSS 3-1 (A) 4.4 19:56:26 10° NNW 20:04:30 81° WSW 20:13:33 10° SSE
Cosmos 2221 2.8 20:02:37 10° SSW 20:06:53 72° W 20:11:11 10° N
BREEZE-M R/B 4.4 20:06:02 10° WSW 20:09:06 27° NW 20:11:20 10° NNE
USA 186 1.2 20:07:20 11° S 20:09:58 84° WSW 20:12:31 10° NNW
BREEZE-M (TANK) 3.8 19:55:07 10° NW 20:10:18 89° SW 20:13:14 19° SE
Cosmos 1500 Rocket 4.0 20:08:04 10° N 20:12:14 41° E 20:15:04 18° SE
GPS 2-04 Rocket1 3.5 20:11:39 10° SW 20:15:17 31° SSE 20:16:55 22° ESE
Cosmos 1933 4.5 20:17:11 22° ESE 20:18:14 25° E 20:21:33 10° NE
Cosmos 1862 3.3 20:14:58 10° N 20:18:59 89° W 20:22:52 11° S
Cosmos 1242 Rocket 3.9 20:24:04 22° E 20:24:04 22° E 20:26:36 10° NE
OBJECT-B 0.8 20:22:06 17° S 20:24:27 81° W 20:27:42 10° NNW
Cosmos 1553 Rocket 3.9 20:19:57 10° S 20:26:02 81° E 20:32:13 10° N
Cosmos 1437 Rocket 2.6 20:23:48 10° S 20:27:34 72° E 20:31:27 10° NNE
Cosmos 1244 Rocket 4.4 20:21:23 10° N 20:27:41 84° E 20:33:52 10° S
Nadezhda 2 Rocket 4.4 20:21:44 10° N 20:27:51 88° W 20:33:58 10° S
Cosmos 2208 Rocket 4.0 20:24:06 10° NNW 20:29:33 87° ENE 20:33:39 18° SSE
Resurs 01 Rocket 2.6 20:29:42 26° ESE 20:30:59 30° ENE 20:34:52 10° N
DELTA 2 R/B (1) 4.5 20:32:19 10° WNW 20:37:38 43° N 20:41:51 15° ENE
Cosmos 1417 Rocket 4.4 20:33:47 10° S 20:40:02 89° E 20:46:15 10° N
Cosmos 1782 4.2 20:43:16 23° ENE 20:43:16 23° ENE 20:45:36 10° NE
Sich 1 3.7 20:38:32 10° NNE 20:42:31 35° E 20:43:00 34° E
BREEZE-M DEB (TANK) 2.5 20:42:45 10° NW 20:45:03 52° NE 20:45:33 46° E
MOS 1 4.3 20:42:56 20° SSE 20:46:58 86° WSW 20:52:40 10° NNW
Lacrosse 5 rocket 4.2 20:48:54 10° W 20:50:28 12° WSW 20:52:01 10° SW
SJ-6B 4.2 20:48:30 14° SSW 20:51:25 35° W 20:55:01 10° NNW
Cosmos 1503 Rocket 3.8 20:46:34 10° S 20:51:42 78° ESE 20:56:53 10° NNE
Intercosmos 24 3.8 20:51:59 23° S 20:54:37 85° W 20:58:14 10° N
Cosmos 1151 Rocket 3.6 20:58:02 40° ENE 20:58:02 40° ENE 21:01:44 10° NNE
Cosmos 2278 Rocket 3.5 21:05:44 23° ENE 21:05:44 23° ENE 21:08:31 10° NE
USA 290 4.3 21:01:31 10° N 21:02:58 20° NNE 21:02:58 20° NNE
Ariane Rocket 3.5 21:02:29 24° S 21:05:26 55° W 21:10:24 10° NNW
FALCON 9 DEB 4.3 21:05:45 10° NNW 21:07:47 34° N 21:07:47 34° N
ASTRO E2 3.5 21:06:06 10° W 21:09:13 38° SW 21:09:13 38° SW
Meteor 1-25 Rocket 4.2 21:09:48 10° N 21:15:39 74° E 21:17:01 53° SSE
CZ-2C R/B 3.6 21:12:03 10° N 21:16:32 82° WNW 21:17:34 53° SSW
Cosmos 2084 4.0 21:17:53 45° NNE 21:17:53 45° NNE 21:20:50 10° NNE
SPOT 1/Viking Rocket 3.7 21:16:47 51° E 21:17:05 52° ENE 21:22:07 10° N
MetOp-B 4.0 21:18:15 60° SE 21:19:02 71° ENE 21:24:23 10° N
X-37B 3.7 21:18:48 10° N 21:19:29 10° N 21:20:08 10° NNE
ARIANE 5 R/B 3.9 21:20:39 28° NE 21:20:39 28° NE 21:23:28 10° N
SL-4 R/B 2.4 21:16:36 10° NW 21:21:06 64° NE 21:21:08 64° NE
Cosmos 1354 Rocket 4.4 21:18:18 12° SSW 21:23:00 61° WNW 21:28:11 10° N
Cosmos 1805 Rocket 4.3 21:19:42 10° NNW 21:23:53 49° W 21:24:44 42° SW
SPOT 3 Rocket 3.7 21:29:40 54° SSW 21:30:38 66° WSW 21:35:46 10° NNW
Landsat 7 3.8 21:31:29 69° SW 21:31:45 71° WSW 21:36:30 10° NNW
Cosmos 1633 Rocket 3.7 21:28:04 10° N 21:31:23 47° NNE 21:31:23 47° NNE
Cosmos 1328 Rocket 4.0 21:36:50 60° N 21:36:50 60° N 21:40:30 10° N
IGS 5A 4.5 21:40:58 41° W 21:40:58 41° W 21:44:40 10° NNW
Cosmos 1709 Rocket 3.8 21:37:33 10° N 21:43:40 84° W 21:44:27 69° SSW
ATLAS 5 CENTAUR R/B 2.6 21:40:59 10° NNW 21:46:54 59° ENE 21:47:13 58° ENE
Cosmos 2315 Rocket 4.5 21:49:27 35° SW 21:52:02 57° W 21:58:18 10° N
Cosmos 1833 Rocket 3.9 21:51:36 10° N 21:55:42 30° NE 21:55:42 30° NE
Meteor 1-14 Rocket 4.3 21:53:32 10° N 21:58:49 72° NNE 21:58:49 72° NNE
Iridium 4 Rocket 4.2 22:01:47 53° NNE 22:01:47 53° NNE 22:06:22 10° N
Resurs 01 Rocket 3.8 22:07:15 19° W 22:07:27 19° W 22:10:37 10° NW
SJ 16-02 3.6 22:15:15 20° NNE 22:15:15 20° NNE 22:16:37 10° NNE
Spot 2 Rocket 4.3 22:14:23 47° WNW 22:14:23 47° WNW 22:18:19 10° NNW
COSMOS 2406 4.1 22:21:51 10° NNW 22:25:47 43° N 22:25:47 43° N
ERS-1 Rocket 4.2 22:30:51 38° NW 22:30:51 38° NW 22:34:04 10° NNW
Cosmos 2082 Rocket 3.8 22:25:07 10° N 22:28:20 26° NNE 22:28:20 26° NNE
SPOT 5 4.2 22:32:05 38° NW 22:32:05 38° NW 22:35:23 10° NNW
Milstar 3 3.5 22:18:18 10° WSW 22:29:42 60° SSW 22:29:42 60° SSW
CZ-4C R/B 3.2 22:28:53 10° NNW 22:36:28 65° ENE 22:36:28 65° ENE
Terra 3.6 22:41:15 29° NNW 22:41:15 29° NNW 22:43:35 10° NNW
Cosmos 2278 Rocket 3.6 22:47:29 32° WNW 22:47:42 32° WNW 22:52:44 10° N
Cosmos 1943 Rocket 4.3 23:11:55 18° NNE 23:11:55 18° NNE 23:13:20 10° NNE
NOSS 3-4 (A) 4.4 23:29:02 10° NNW 23:34:28 55° NNW 23:34:28 55° NNW
NOSS 3-4 (C) 4.4 23:29:08 10° NNW 23:34:35 55° NNW 23:34:35 55° NNW
ATLAS 2AS CENTAUR R/B 3.6 23:42:53 10° NNW 23:47:56 43° N 23:47:56 43° N
